Wheeler Lake Weather Center

Moon Phase Calendar



Wheeler Lake Water Level
Online Cameras

 


      

Current Conditions in Trinity
10/5/2022 3:03:20 AM

49°F
Feels Like 48
Clear
Humidity
85%
Pressure
30.21"
Wind
3.4 mph (N)
Dew Point
45°F
UV Index
0/10 (Low)
Visibility
6 mi

Hourly Forecast

Date & Time Wed, Oct 5
3:00 AM
Wed, Oct 5
4:00 AM
Wed, Oct 5
5:00 AM
Wed, Oct 5
6:00 AM
Wed, Oct 5
7:00 AM
Wed, Oct 5
8:00 AM
Wed, Oct 5
9:00 AM
Wed, Oct 5
10:00 AM
Wed, Oct 5
11:00 AM
Wed, Oct 5
12:00 PM
Wed, Oct 5
1:00 PM
Wed, Oct 5
2:00 PM
Wed, Oct 5
3:00 PM
Wed, Oct 5
4:00 PM
Wed, Oct 5
5:00 PM
Wed, Oct 5
6:00 PM
Wed, Oct 5
7:00 PM
Wed, Oct 5
8:00 PM
Wed, Oct 5
9:00 PM
Wed, Oct 5
10:00 PM
Wed, Oct 5
11:00 PM
Thu, Oct 6
12:00 AM
Thu, Oct 6
1:00 AM
Thu, Oct 6
2:00 AM
Thu, Oct 6
3:00 AM
Thu, Oct 6
4:00 AM
Thu, Oct 6
5:00 AM
Thu, Oct 6
6:00 AM
Thu, Oct 6
7:00 AM
Thu, Oct 6
8:00 AM
Thu, Oct 6
9:00 AM
Thu, Oct 6
10:00 AM
Thu, Oct 6
11:00 AM
Thu, Oct 6
12:00 PM
Thu, Oct 6
1:00 PM
Thu, Oct 6
2:00 PM
Thu, Oct 6
3:00 PM
Thu, Oct 6
4:00 PM
Thu, Oct 6
5:00 PM
Thu, Oct 6
6:00 PM
Thu, Oct 6
7:00 PM
Thu, Oct 6
8:00 PM
Thu, Oct 6
9:00 PM
Thu, Oct 6
10:00 PM
Thu, Oct 6
11:00 PM
Fri, Oct 7
12:00 AM
Fri, Oct 7
1:00 AM
Fri, Oct 7
2:00 AM
Condition
Clear

Clear

Clear

Clear

Clear

Clouds

Clear

Clear

Clear

Clouds

Clouds

Clear

Clear

Clouds

Clouds

Clouds

Clouds

Clear

Clear

Clear

Clear

Clear

Clear

Clear

Clear

Clear

Clear

Clear

Clear

Clear

Clear

Clear

Clear

Clear

Clear

Clear

Clear

Clear

Clear

Clouds

Clouds

Clear

Clear

Clear

Clear

Clear

Clear

Clear
Temperature 49°F49°F49°F49°F49°F55°F62°F67°F72°F75°F77°F78°F79°F78°F77°F70°F64°F61°F60°F58°F57°F55°F55°F54°F53°F52°F52°F51°F51°F57°F65°F71°F75°F78°F81°F82°F83°F83°F82°F74°F69°F67°F65°F63°F62°F61°F60°F59°F
Feels Like 47°F47°F48°F48°F48°F52°F60°F65°F70°F73°F76°F77°F79°F77°F75°F68°F62°F59°F58°F56°F55°F54°F53°F52°F51°F50°F50°F49°F49°F56°F63°F69°F74°F77°F79°F80°F81°F81°F80°F73°F67°F66°F63°F62°F60°F59°F58°F57°F
Cloudiness 0%0%1%1%2%12%8%7%10%16%14%7%8%23%18%14%12%0%0%0%0%0%0%0%1%3%2%2%2%0%0%0%0%0%0%0%0%1%6%12%11%0%0%0%0%0%0%0%
Visibility 6 mi6 mi6 mi6 mi6 mi6 mi6 mi6 mi6 mi6 mi6 mi6 mi6 mi6 mi6 mi6 mi6 mi6 mi6 mi6 mi6 mi6 mi6 mi6 mi6 mi6 mi6 mi6 mi6 mi6 mi6 mi6 mi6 mi6 mi6 mi6 mi6 mi6 mi6 mi6 mi6 mi6 mi6 mi6 mi6 mi6 mi6 mi6 mi
Precipitation 0%0%0%0%0%0%0%0%0%0%0%0%0%0%0%0%0%0%0%0%0%0%0%0%0%0%0%0%0%0%0%0%0%0%0%0%0%0%0%0%0%0%0%0%0%0%0%0%
Humidity 85%82%78%74%70%55%41%33%26%23%22%22%22%23%26%38%43%48%53%56%59%62%64%65%67%68%69%70%70%58%46%38%31%26%22%21%21%22%26%35%38%40%42%45%47%48%49%51%
Dew Point 45°F44°F43°F41°F39°F38°F38°F37°F36°F35°F35°F36°F36°F37°F40°F43°F41°F41°F42°F42°F43°F42°F42°F42°F42°F42°F42°F41°F41°F43°F43°F44°F43°F41°F39°F39°F40°F41°F43°F45°F42°F42°F42°F42°F41°F41°F41°F41°F
Pressure 30.21"30.18"30.18"30.15"30.15"30.12"30.15"30.12"30.12"30.12"30.09"30.06"30.03"30.03"30.03"30.06"30.06"30.06"30.09"30.09"30.09"30.09"30.09"30.09"30.09"30.09"30.09"30.09"30.12"30.12"30.12"30.12"30.12"30.09"30.06"30.03"30.03"30.03"30"30.03"30.03"30.06"30.06"30.09"30.09"30.09"30.09"30.12"
Wind Speed 5 mph4.6 mph4.3 mph3.9 mph3.8 mph3.5 mph3.8 mph4.6 mph5.1 mph5.3 mph5.4 mph5.8 mph6.2 mph6.6 mph7.1 mph6.8 mph7.6 mph7.3 mph6.7 mph5.6 mph4.3 mph3.6 mph3.5 mph3.4 mph2.5 mph2.1 mph1.8 mph0.9 mph0.4 mph0.7 mph1.3 mph2.2 mph4.4 mph5.2 mph5.6 mph5.8 mph5.6 mph5.4 mph4.9 mph2.7 mph1.1 mph3.6 mph3.8 mph3.6 mph3.2 mph4.1 mph4.3 mph3.5 mph
Wind
Direction
37°
NE
39°
NE
38°
NE
36°
NE
31°
NNE
34°
NE
36°
NE
37°
NE
35°
NE
28°
NNE
25°
NNE
18°
NNE
17°
NNE
16°
NNE
19°
NNE
30°
NNE
43°
NE
52°
NE
59°
ENE
65°
ENE
62°
ENE
59°
ENE
47°
NE
64°
ENE
55°
NE
67°
ENE
97°
E
85°
E
94°
E
137°
SE
192°
SSW
245°
WSW
247°
WSW
256°
WSW
271°
W
284°
WNW
287°
WNW
289°
WNW
294°
WNW
304°
NW
179°
S
161°
SSE
178°
S
186°
S
224°
SW
226°
SW
213°
SSW
247°
WSW

Daily Forecast

Date High Low Precip. Humidity
Today
Oct 5

Clouds
79 °F
49 °F
0%
23%
Thursday
Oct 6

Clear
83 °F
51 °F
0%
26%
Friday
Oct 7

Clouds
82 °F
56 °F
0%
30%
Saturday
Oct 8

Clouds
71 °F
48 °F
0%
21%
Sunday
Oct 9

Clear
74 °F
43 °F
0%
18%
Monday
Oct 10

Clouds
82 °F
53 °F
0%
26%
Tuesday
Oct 11

Clear
86 °F
58 °F
0%
36%
Wednesday
Oct 12

Clouds
87 °F
61 °F
0%
45%
Thursday
Oct 13

Rain
76 °F
66 °F
100%
89%
Friday
Oct 14

Clouds
71 °F
53 °F
5%
43%
Saturday
Oct 15

Clouds
73 °F
50 °F
0%
42%
Sunday
Oct 16

Clouds
72 °F
51 °F
0%
23%
Monday
Oct 17

Clouds
73 °F
47 °F
0%
25%
Tuesday
Oct 18

Clouds
73 °F
52 °F
0%
29%
Wednesday
Oct 19

Clear
74 °F
52 °F
0%
36%
Thursday
Oct 20

Clouds
74 °F
49 °F
0%
26%

Temperature 8-14 Day Outlook



Precipitation 8-14 Day Outlook




Quick Links
Wheeler Lake News
Wheeler Lake Photos
Wheeler Lake Videos




About Us
Contact Us
Site Map
Search Site
Advertise With Us
   
www.WheelerLake.info
THE WHEELER LAKE WEBSITE

Copyright 2022, Lakes Online
Privacy    |    Legal